Home > Weather > Legnica > Past weeks

Flag for Poland Past Weather in Legnica, Poland — Yesterday and Last 2 Weeks

Now
76 °F

Scattered clouds.


Feels Like: 78 °F
Forecast: 65 / 80 °F
Wind: 2 mph from South

Location: Wroclaw Ii

Current Time: Jul 29, 2016 at 8:03:24 PM

Latest Report: Jul 29, 2016 at 7:00 PM


Visibility: 25 mi

Pressure: 29.88 "Hg

Humidity: 70%

Dew Point: 65 °F

Location of LegnicaLocation

Past Weather in Legnica — Graph

°F

Legnica Temperature Yesterday

Maximum temperature yesterday: 80 °F (at 6:00 PM)
Minimum temperature yesterday: 63 °F (at 4:00 AM)
Average temperature yesterday: 70 °F

High & Low Weather Summary for the Past Weeks

 TemperatureHumidityPressure
High86 °F (Jul 26, 3:00 PM)98% (Jul 26, 6:00 AM)30.25 "Hg (Jul 26, 6:00 AM)
Low52 °F (Jul 21, 5:00 AM)36% (Jul 21, 5:00 PM)29.75 "Hg (Jul 14, 6:00 PM)
Average68 °F75%30.06 "Hg
* Reported Jul 14 6:00 PM — Jul 29 6:00 PM, Legnica, Weather by CustomWeather, © 2016

Note: Actual official high and low records may vary slightly from our data, if they occured in-between our weather recording intervals... More about our weather records

Advertising

Legnica Weather History for the Previous 24 Hours

Scroll right to see more
 ConditionsComfort  
Time TempWeatherWind HumidityBarometerVisibility
6:00 PM
Fri, Jul 29
74 °FSprinkles. Partly sunny.5 mph78%29.88 "Hg19 mi
5:00 PM72 °FPartly sunny.5 mph80%29.89 "Hg25 mi
4:00 PM72 °FThunderstorms. Overcast.5 mph80%29.89 "Hg25 mi
3:00 PM74 °FThunderstorms. Partly sunny.2 mph81%29.90 "Hg19 mi
2:00 PMN/APassing clouds.24 mphN/AN/A3 mi
1:00 PM76 °FPartly sunny.1 mph66%29.90 "Hg25 mi
12:00 PMN/APassing clouds.25 mphN/AN/A14 mi
11:00 AM70 °FSprinkles. Overcast.3 mph81%29.93 "Hg19 mi
10:00 AM70 °FOvercast.2 mph84%29.95 "Hg12 mi
9:00 AM71 °FOvercast.3 mph79%29.93 "Hg12 mi
8:00 AM68 °FOvercast.2 mph84%29.92 "Hg12 mi
7:00 AM64 °FOvercast.1 mph94%29.93 "Hg9 mi
6:00 AM61 °FFog.No wind96%29.94 "Hg5 mi
5:00 AM60 °FFog.1 mph97%29.94 "Hg5 mi
4:00 AM59 °FFog.1 mph98%29.95 "Hg1 mi
2:00 AM63 °FFog.No wind95%29.96 "Hg12 mi
11:00 PM
Thu, Jul 28
67 °FPassing clouds.1 mph89%29.98 "Hg12 mi
10:00 PM69 °FOvercast.1 mph85%29.98 "Hg12 mi
8:00 PM71 °FOvercast.2 mph78%29.96 "Hg12 mi
Weather by CustomWeather, © 2016

See weather overviewHow to use our weather pages